Weather History for KCLT - August, 2013

Change the Weather History Date:

Sunday, August 4, 2013

  Actual Average Record
Temperature  
Mean Temperature 78 °F 78 °F  
Max Temperature 87 °F 89 °F 98 °F (1935)
Min Temperature 68 °F 68 °F 58 °F (1912)
Degree Days  
Heating Degree Days 0 0  
Month to date heating degree days 0 0  
Since 1 June heating degree days 0 3  
Since 1 July heating degree days 0 0  
Cooling Degree Days 13 13  
Month to date cooling degree days 55 52  
Year to date cooling degree days 987 946  
Since 1 June cooling degree days 818 783  
Growing Degree Days 28 (Base 50)    
Moisture  
Dew Point 67 °F    
Average Humidity 72    
Maximum Humidity 97    
Minimum Humidity 46    
Precipitation  
Precipitation 0.00 in 0.15 in 2.59 in (1880)
Month to date precipitation 0.06 0.58  
Year to date precipitation 33.58 24.96  
Snow  
Snow 0.00 in 0.00 in 0.00 in ()
Month to date snowfall 0.0 0.0  
Since 1 June snowfall 0.0 0.0  
Since 1 July snowfall 0.0 0.0  
Snow Depth 0.00 in    
Sea Level Pressure  
Sea Level Pressure 29.97 in    
Wind  
Wind Speed 5 mph (North)    
Max Wind Speed 16 mph    
Max Gust Speed 22 mph    
Visibility 10 miles    
Events      
T = Trace of Precipitation, MM = Missing Value Source: NWS Daily Summary

Daily Weather History Graph

Daily Weather History Graph

Search for Another Location

Airport or City:

Trip Planner

Search our weather history database for the weather conditions in past years. The results will help you decide how hot, cold, wet, or windy it might be!

Date:

Astronomy

Aug. 04, 2013 Rise Set
Actual Time 6:35 AM EDT 8:24 PM EDT
Civil Twilight 6:07 AM EDT 8:51 PM EDT
Nautical Twilight 5:34 AM EDT 9:24 PM EDT
Astronomical Twilight 4:58 AM EDT 10:00 PM EDT
Moon 4:35 AM EDT (8/4) 6:46 PM EDT (8/4)
Length of Visible Light 14h 44m
Length of Day
13h 48m
Waning Crescent, 5% of the Moon is Illuminated
Aug 4
Waning Crescent
Aug 6
New
Aug 14
First Quarter
Aug 20
Full
Aug 28
Last Quarter

Hourly Weather History & Observations

Time (EDT) Temp. Heat Index Dew Point Humidity Pressure Visibility Wind Dir Wind Speed Gust Speed Precip Events Conditions
12:52 AM 73.0 °F - 71.1 °F 93% 29.96 in 10.0 mi NW 4.6 mph - N/A   Clear
1:52 AM 71.1 °F - 70.0 °F 96% 29.95 in 10.0 mi NNW 3.5 mph - N/A   Clear
2:52 AM 71.1 °F - 69.1 °F 93% 29.94 in 10.0 mi NW 3.5 mph - N/A   Clear
3:52 AM 71.1 °F - 68.0 °F 90% 29.94 in 10.0 mi NNW 5.8 mph - N/A   Clear
4:52 AM 70.0 °F - 68.0 °F 93% 29.93 in 10.0 mi Calm Calm - N/A   Partly Cloudy
5:52 AM 69.1 °F - 68.0 °F 96% 29.94 in 9.0 mi Calm Calm - N/A   Scattered Clouds
6:52 AM 70.0 °F - 66.9 °F 90% 29.96 in 10.0 mi North 3.5 mph - N/A   Scattered Clouds
7:52 AM 75.0 °F - 69.1 °F 82% 29.96 in 10.0 mi Calm Calm - N/A   Mostly Cloudy
8:52 AM 78.1 °F - 69.1 °F 74% 29.97 in 10.0 mi Calm Calm - N/A   Mostly Cloudy
9:52 AM 82.0 °F 86.3 °F 71.1 °F 69% 29.97 in 10.0 mi North 9.2 mph - N/A   Scattered Clouds
10:52 AM 84.0 °F 87.8 °F 69.1 °F 61% 29.98 in 10.0 mi North 11.5 mph - N/A   Scattered Clouds
11:52 AM 84.9 °F 88.2 °F 68.0 °F 57% 29.99 in 10.0 mi North 9.2 mph 19.6 mph N/A   Mostly Cloudy
12:52 PM 84.9 °F 87.6 °F 66.9 °F 55% 29.99 in 10.0 mi NNE 13.8 mph - N/A   Mostly Cloudy
1:52 PM 87.1 °F 89.9 °F 66.9 °F 51% 29.98 in 10.0 mi North 6.9 mph - N/A   Mostly Cloudy
2:52 PM 82.9 °F 84.6 °F 64.9 °F 54% 29.97 in 10.0 mi North 10.4 mph - N/A   Mostly Cloudy
3:52 PM 87.1 °F 88.9 °F 64.9 °F 48% 29.97 in 10.0 mi NNW 5.8 mph - N/A   Mostly Cloudy
4:52 PM 86.0 °F 87.3 °F 64.0 °F 48% 29.96 in 10.0 mi NE 11.5 mph 20.7 mph N/A   Mostly Cloudy
5:52 PM 84.9 °F 85.9 °F 63.0 °F 48% 29.97 in 10.0 mi Variable 3.5 mph - N/A   Mostly Cloudy
6:52 PM 84.0 °F 84.5 °F 62.1 °F 47% 29.96 in 10.0 mi Variable 5.8 mph - N/A   Mostly Cloudy
7:52 PM 82.0 °F 83.1 °F 63.0 °F 52% 29.97 in 10.0 mi ENE 5.8 mph - N/A   Mostly Cloudy
8:52 PM 81.0 °F 82.2 °F 63.0 °F 54% 29.99 in 10.0 mi ESE 6.9 mph - N/A   Mostly Cloudy
9:52 PM 75.0 °F - 64.9 °F 71% 30.01 in 10.0 mi Calm Calm - N/A   Mostly Cloudy
10:52 PM 71.1 °F - 64.9 °F 81% 30.01 in 10.0 mi Calm Calm - N/A   Mostly Cloudy
11:52 PM 69.1 °F - 66.0 °F 90% 30.02 in 10.0 mi NE 4.6 mph - N/A   Mostly Cloudy